ECHOSTAR 25

operational
NORAD ID: 68126 Int'l Des: 2026-045A Country: USA
MEOELLIPTICALHEO_ELLIPTICAL

关于 ECHOSTAR 25

正在加载描述...

实时位置

正在加载3D地球...

即将过境

高度历史

Altitude vs Time

uPlot chart will show altitude changes over time

两行轨道根数

1 68126U 26045A 26070.41163373 .00000389 00000-0 64833-4 0 9991
2 68126 26.8991 70.3993 6209398 175.3735 195.5868 3.74430284 51
Epoch: Mar 11, 2026 • Age: 78 hours

当前状态

高度 14262.5 km
速度 3.98 km/s
星下点 -17.30°S, 125.8°E
类型 other

大型星座

Loading constellations...